Theta_e
321 320 320 320 321 321 321 321 321 321 321 321 320 319 318 318 318 318 319 318 317 316 315 316 315 315 315 315 315 315 315 315 315 315 315 313 313 313 313 312 313 316
321 321 320 320 321 321 320 320 321 321 320 321 321 320 319 318 317 318 319 318 317 316 315 316 315 314 314 315 315 314 314 314 315 315 316 315 314 314 313 312 312 314
321 321 321 320 320 320 320 320 321 321 320 320 321 321 320 319 317 318 320 318 317 316 316 316 315 314 315 314 314 315 315 315 315 314 313 314 314 314 313 313 312 312
322 321 321 320 319 320 320 320 320 321 320 319 321 321 321 319 317 319 320 318 317 317 316 316 316 315 315 314 314 315 315 315 315 313 313 313 313 313 312 312 312 311
323 323 323 322 321 320 320 320 320 320 320 319 320 321 322 321 318 318 320 318 318 318 317 316 316 316 315 314 314 315 314 315 314 313 315 314 312 312 312 312 312 311
325 324 325 325 324 322 322 322 321 321 320 319 320 320 321 322 320 319 320 319 318 319 318 317 316 316 315 313 314 314 314 313 313 313 315 314 312 312 312 312 313 311
326 326 326 325 324 323 322 324 323 321 321 319 320 320 321 322 321 320 320 320 319 319 319 318 317 316 315 314 315 315 313 314 313 313 313 313 312 311 311 311 310 310
325 325 324 324 324 323 323 324 323 322 322 321 320 319 319 321 322 321 320 320 320 319 319 319 318 317 316 315 315 315 314 315 314 312 312 313 312 311 311 310 309 309
324 323 323 323 323 322 322 323 324 324 324 322 320 319 319 320 321 322 321 320 320 319 319 319 318 317 317 315 316 316 315 315 314 312 312 313 312 311 311 310 310 310
323 322 323 323 323 321 321 322 323 324 324 323 321 320 320 320 321 321 321 320 320 320 319 319 318 318 317 316 316 315 315 315 314 312 312 313 312 311 311 310 311 311
323 322 322 323 324 323 323 322 322 323 324 323 322 322 321 321 321 321 321 320 320 320 320 319 319 318 317 317 316 316 315 315 314 313 312 313 312 311 311 310 310 310
324 323 323 323 324 323 322 321 321 323 323 322 322 323 323 321 320 319 320 320 320 319 320 320 319 319 318 318 317 316 315 315 314 313 313 313 312 311 311 309 309 309
322 322 322 323 324 324 323 322 322 322 322 321 320 322 322 321 320 320 319 320 320 319 319 320 320 319 319 318 317 316 315 315 314 313 313 312 312 311 310 309 308 308
317 319 319 319 321 321 321 323 324 323 323 322 321 321 321 320 319 320 319 319 320 320 319 319 319 320 319 318 318 317 316 315 315 313 312 312 311 310 309 308 308 307
311 313 313 312 313 313 314 316 320 321 321 322 322 321 321 319 318 320 321 320 319 319 319 319 319 319 319 319 319 318 316 315 314 313 312 311 311 310 308 307 307 305
311 311 311 312 313 313 313 315 317 317 318 319 321 321 321 320 320 320 321 321 320 319 319 319 319 318 318 319 319 318 317 315 314 313 312 312 311 309 307 307 306 305
310 311 312 312 313 313 314 315 316 317 318 319 319 320 321 322 321 321 321 321 320 320 320 319 319 318 319 319 319 318 317 315 314 313 312 311 310 308 307 306 305 305
307 308 309 309 309 310 310 311 313 315 317 318 318 319 321 322 322 322 322 322 321 321 320 319 319 319 319 319 318 317 316 315 314 313 311 310 308 307 306 306 305 305
307 307 308 307 308 309 309 309 311 312 314 315 316 318 318 319 321 322 322 322 322 321 321 320 319 319 319 319 317 316 315 314 313 311 309 308 307 306 306 305 305 304
308 308 308 308 308 308 308 309 309 310 311 312 314 316 317 317 318 320 321 322 321 321 320 320 319 319 318 317 316 314 314 312 310 308 307 306 306 306 305 304 303 303
308 308 309 309 308 308 308 308 309 309 309 310 312 314 316 316 316 318 319 321 320 320 320 319 318 317 316 315 313 313 312 310 307 306 306 305 304 304 304 303 302 302
308 309 309 309 308 308 308 308 308 308 309 309 310 312 314 315 315 316 317 319 319 320 320 318 317 315 314 313 312 311 310 308 305 304 304 303 303 303 303 302 302 302
307 308 309 309 309 308 308 308 308 307 308 308 309 311 313 314 315 315 316 316 317 319 318 317 315 313 311 311 310 310 309 306 304 303 303 302 301 302 302 302 302 302
307 308 308 308 308 308 308 307 307 307 308 308 308 309 312 313 314 314 315 314 316 316 316 315 314 310 308 308 309 308 306 304 303 302 302 301 302 302 302 302 302 302
307 307 308 308 308 308 308 308 308 308 308 308 308 309 311 312 313 313 313 314 315 315 314 313 312 308 305 306 306 304 303 302 301 302 302 301 301 302 301 301 301 301
306 307 307 308 309 309 309 309 309 309 309 309 309 309 311 312 312 312 313 312 313 313 311 310 310 306 302 301 301 300 300 301 300 300 300 300 300 300 300 300 299 299
Wind_Speed
18 18 18 15 15 15 14 13 13 12 10 10 10 9 9 8 7 6 5 4 4 4 5 5 5 6 7 7 7 7 7 8 9 9 9 9 10 10 9 8 9 9
19 18 18 16 14 15 15 13 12 13 11 10 11 10 10 10 8 8 7 6 5 5 5 5 4 5 5 5 6 6 6 8 8 8 8 8 8 8 8 8 8 10
20 19 18 17 15 15 16 14 11 12 11 10 10 11 11 11 10 10 9 8 7 6 6 5 5 5 4 4 5 5 5 6 6 6 7 7 8 7 7 6 7 8
19 18 17 17 15 14 16 15 12 12 11 10 10 10 12 12 11 11 11 10 9 9 8 7 6 6 6 5 5 5 5 5 5 5 6 6 6 5 6 6 6 7
18 17 15 15 14 13 15 16 13 12 11 11 11 11 12 13 12 12 12 12 11 11 10 9 9 8 8 7 6 6 6 5 5 5 5 4 4 4 5 5 5 5
15 15 14 13 12 11 11 13 14 13 11 12 12 12 12 13 13 13 13 13 13 13 12 12 12 11 10 9 8 8 8 7 6 6 5 4 3 3 4 3 3 3
12 12 12 11 10 10 9 10 12 12 11 11 12 12 13 14 14 14 15 15 15 15 14 14 14 13 13 12 11 10 10 9 9 8 7 6 5 4 4 3 2 2
7 8 10 9 8 9 9 10 12 13 13 13 13 13 13 15 15 14 15 16 16 16 16 15 15 15 15 14 13 13 12 11 11 10 9 9 8 6 5 5 3 2
4 3 4 6 6 6 6 9 11 12 14 16 15 14 13 13 15 15 15 16 17 17 17 16 16 17 17 16 15 15 14 14 13 12 10 11 9 7 7 6 4 3
6 3 2 2 4 6 6 8 10 11 13 15 15 15 13 11 11 13 15 17 18 18 17 17 17 17 17 17 16 16 16 15 15 13 12 12 10 9 8 7 6 5
9 10 9 5 3 5 5 6 7 9 12 12 11 12 14 13 12 14 16 17 19 19 19 18 18 18 17 17 16 16 16 15 14 14 14 13 12 11 10 9 7 6
10 12 12 7 4 6 9 10 11 11 10 10 10 11 14 16 18 18 16 18 21 22 22 21 19 18 18 18 17 16 16 16 14 14 14 13 13 12 11 10 8 7
8 8 8 5 2 6 10 14 16 16 16 15 16 18 19 18 18 18 19 22 24 23 22 20 20 20 19 18 18 17 17 17 16 15 15 14 13 12 10 9 9 8
5 6 7 6 4 5 7 11 14 15 16 17 19 22 23 20 18 18 22 28 29 25 22 20 19 18 19 19 20 20 19 19 18 16 15 14 13 12 10 10 10 8
2 2 3 5 7 7 7 9 10 11 12 14 16 19 19 18 19 21 23 27 29 27 26 24 21 19 20 22 22 22 21 20 19 17 16 15 13 11 10 10 10 9
2 3 4 6 8 9 8 8 9 11 13 13 12 13 14 16 20 25 26 27 27 26 25 24 21 21 24 25 25 25 23 20 20 17 15 15 14 12 11 11 10 9
3 4 5 6 7 7 8 8 8 8 10 10 10 12 13 15 18 22 25 25 25 22 22 22 21 23 26 26 24 25 24 20 19 18 15 15 14 13 12 12 11 10
2 3 4 5 5 5 6 6 6 6 7 8 9 11 13 14 15 17 18 18 19 18 18 22 24 25 27 25 21 22 23 20 18 17 15 14 13 13 12 11 12 11
3 3 5 5 4 5 6 6 7 7 8 8 9 10 11 11 13 14 14 14 15 14 14 19 23 24 24 24 22 22 22 20 17 16 15 14 12 12 11 10 11 11
3 4 4 4 4 5 6 6 8 9 9 9 9 9 10 11 12 13 13 13 13 12 14 17 19 19 20 22 22 23 23 21 17 15 15 13 11 12 12 10 9 8
4 4 4 4 5 6 6 7 8 9 10 10 10 10 11 11 12 12 12 13 13 12 13 15 16 17 19 21 22 23 24 22 17 14 14 11 10 11 11 10 9 8
4 4 3 4 5 6 7 8 8 9 10 10 11 11 11 11 11 11 10 12 12 12 13 14 15 17 18 20 22 23 23 20 13 11 12 10 8 9 9 9 10 10
5 5 5 6 6 7 7 8 9 10 10 11 12 12 11 11 12 11 10 11 11 12 14 14 14 17 20 21 23 22 21 18 11 9 10 8 7 8 9 9 10 11
6 6 6 6 7 8 9 9 10 11 11 12 13 13 12 11 11 11 11 11 11 11 12 14 15 19 20 21 22 20 18 15 10 7 7 7 8 9 10 10 10 11
7 7 8 8 9 10 10 10 11 11 12 13 14 14 14 12 12 12 10 8 7 8 10 12 16 20 19 19 18 17 15 14 9 7 8 8 8 8 8 8 7 8
9 9 10 10 10 10 10 11 11 12 12 13 14 14 14 12 10 9 7 6 6 7 8 10 15 20 19 18 17 16 15 14 10 7 5 3 3 3 4 4 5 7
Wind_Direction
175 174 173 173 172 174 175 175 176 178 179 175 174 173 173 178 170 156 155 152 148 142 131 128 126 123 120 110 104 106 105 100 96 93 89 82 80 81 74 73 83 74
179 178 178 179 179 179 180 182 182 181 185 183 179 180 180 185 180 169 175 175 167 165 154 153 145 128 128 127 118 114 111 107 100 95 95 88 81 79 73 73 80 76
180 181 180 182 184 183 181 186 188 185 188 188 185 184 185 192 188 177 186 183 178 186 176 171 168 149 157 157 133 128 124 114 114 117 115 103 94 89 82 76 75 78
181 185 184 184 188 188 181 184 189 188 192 196 192 189 191 199 194 185 193 189 184 197 191 184 185 172 177 175 153 152 147 139 144 135 115 107 107 105 96 83 73 79
184 188 187 185 188 189 179 180 188 191 195 200 200 198 198 204 202 195 201 197 192 200 199 194 192 188 189 184 175 178 168 166 173 148 131 134 124 113 108 94 77 79
188 192 193 191 190 190 179 177 185 193 202 205 204 205 204 209 210 205 207 207 202 202 202 200 197 195 196 190 188 192 185 187 188 168 162 171 150 125 124 107 85 80
189 195 199 198 193 195 196 193 192 195 206 210 207 210 214 216 214 211 213 213 209 208 208 206 202 200 199 195 194 196 193 194 190 181 182 183 174 165 156 149 134 108
195 205 209 209 201 196 201 207 208 208 215 218 215 216 220 222 219 219 222 221 217 215 213 211 207 206 204 199 198 198 197 197 190 186 192 189 180 179 182 182 173 142
187 201 208 212 210 210 221 224 221 222 224 226 227 224 225 230 228 227 230 231 228 224 221 218 213 211 209 205 204 203 199 198 194 190 196 194 185 186 195 191 179 174
191 193 233 249 203 202 227 236 233 237 238 240 244 240 235 239 239 237 240 240 238 233 230 227 220 217 214 209 209 210 205 202 198 194 197 197 190 191 196 190 183 188
178 189 211 244 237 206 207 214 231 252 251 248 254 247 238 238 237 237 241 246 245 240 237 234 228 224 220 214 214 216 211 206 202 199 199 197 193 194 193 186 184 193
158 174 191 211 246 237 222 215 225 246 251 247 255 253 244 243 244 243 248 256 255 246 241 239 234 228 224 220 217 219 216 210 207 206 203 200 196 194 197 197 193 193
147 148 148 151 219 241 228 223 227 235 239 241 250 251 244 243 249 250 252 257 258 252 247 247 243 237 232 226 219 220 218 211 208 208 205 204 202 194 195 200 194 191
139 132 129 140 180 217 225 227 227 231 233 232 235 238 237 240 247 248 247 250 254 255 253 255 260 258 250 240 228 224 220 211 207 207 205 204 203 198 197 196 193 196
125 160 187 206 219 225 233 235 232 234 237 233 230 233 238 246 248 245 243 246 249 252 251 252 261 265 258 249 237 227 221 212 204 204 204 203 200 198 199 199 199 204
178 204 218 227 230 231 235 239 239 239 241 243 246 249 251 253 247 239 239 243 246 250 250 248 248 246 245 250 244 228 218 209 200 200 203 203 198 197 201 202 205 209
230 221 220 227 234 237 239 246 252 252 249 252 262 261 252 248 246 241 241 245 247 250 253 251 245 236 238 250 248 226 211 202 195 195 202 201 196 197 200 201 204 211
264 254 253 258 262 266 271 276 283 281 275 270 267 258 246 239 241 244 247 249 246 245 250 250 247 242 241 248 245 223 208 198 188 188 196 197 194 196 199 205 209 212
268 265 270 278 284 289 294 301 299 291 286 280 272 265 259 250 243 244 250 252 244 232 226 231 238 241 241 240 231 214 201 189 179 182 189 190 194 199 202 208 211 209
272 277 281 290 300 306 305 301 295 292 292 289 280 271 266 262 254 249 250 255 252 235 218 219 227 231 231 223 211 199 190 182 175 178 185 191 201 204 204 209 211 212
267 271 282 293 298 301 301 296 291 292 293 291 285 275 267 265 261 252 246 250 253 243 227 219 217 219 219 209 197 190 187 181 174 173 180 188 198 200 204 214 221 227
262 266 272 281 287 290 293 293 293 296 294 290 286 277 268 267 267 261 253 250 250 245 231 218 209 209 208 199 192 190 189 184 175 171 176 181 190 201 213 224 230 237
257 261 260 264 272 277 283 289 291 294 292 288 288 281 269 263 264 263 262 260 260 250 231 214 203 200 198 192 190 191 192 187 175 169 180 193 207 216 225 233 237 241
258 254 256 264 270 273 280 286 287 288 285 283 284 282 274 265 260 261 262 259 261 253 229 211 199 192 188 188 189 190 190 182 171 174 194 213 224 226 230 236 244 251
264 258 258 262 265 269 275 278 280 282 282 279 279 278 273 265 259 259 255 241 240 239 222 204 190 182 181 185 184 182 178 170 167 190 208 216 225 228 231 236 253 273
262 258 255 252 254 261 267 270 274 276 275 276 276 273 270 268 262 245 213 186 197 210 205 196 186 177 173 174 170 166 165 162 165 181 188 193 217 242 272 276 286 297